When you browse on this site, cookies collect data to enhance your experience and personalize the content and advertising you see.
Visit our Privacy Policy to learn more. By continuing to use the site, you agree to this use of cookies and data.
  • En España
  • Lista de países
  • Para 7 días
  • Temperatura del agua
  • Mapa Satelital
  • El tiempo en el mapa
  • Informadores
  • user-avatar
    Iniciar sesión

    Tiempo cada hora Valutino

    Hoy, 22 Mayo, Miércoles

    Tiempo Temperatura Precipitaciones Viento Presión Humedad
    00:00 +14°C° 0 mm 2 mps 743 mmHg 92%
    01:00 +14°C° 0 mm 2 mps 743 mmHg 93%
    02:00 +14°C° 0 mm 1 mps 742 mmHg 93%
    03:00 +14°C° 0 mm 1 mps 742 mmHg 92%
    04:00 +14°C° 0 mm 2 mps 742 mmHg 92%
    05:00 +14°C° 0 mm 2 mps 742 mmHg 91%
    06:00 +16°C° 0 mm 2 mps 742 mmHg 86%
    07:00 +18°C° 0 mm 2 mps 742 mmHg 80%
    08:00 +19°C° 0 mm 2 mps 742 mmHg 73%
    09:00 +20°C° 0.1 mm 2 mps 742 mmHg 70%
    10:00 +21°C° 0.1 mm 2 mps 741 mmHg 67%
    11:00 +23°C° 0.1 mm 2 mps 741 mmHg 64%
    12:00 +23°C° 0.8 mm 2 mps 741 mmHg 64%
    13:00 +24°C° 0.8 mm 2 mps 740 mmHg 65%
    14:00 +24°C° 0.8 mm 2 mps 740 mmHg 65%
    15:00 +24°C° 1 mm 2 mps 740 mmHg 67%
    16:00 +23°C° 1 mm 2 mps 740 mmHg 69%
    17:00 +23°C° 1 mm 2 mps 739 mmHg 71%
    18:00 +22°C° 0.3 mm 1 mps 739 mmHg 76%
    19:00 +20°C° 0.3 mm 1 mps 739 mmHg 80%
    20:00 +19°C° 0.3 mm 1 mps 739 mmHg 85%
    21:00 +18°C° 0 mm 1 mps 739 mmHg 86%
    22:00 +18°C° 0 mm 1 mps 739 mmHg 87%
    23:00 +16°C° 0 mm 1 mps 738 mmHg 88%

    Mañana, 23 Mayo, Jueves

    Tiempo Temperatura Precipitaciones Viento Presión Humedad
    00:00 +16°C° 0 mm 1 mps 738 mmHg 89%
    01:00 +15°C° 0 mm 1 mps 738 mmHg 89%
    02:00 +15°C° 0 mm 1 mps 738 mmHg 90%
    03:00 +15°C° 0 mm 1 mps 738 mmHg 89%
    04:00 +15°C° 0 mm 2 mps 738 mmHg 89%
    05:00 +15°C° 0 mm 2 mps 738 mmHg 88%
    06:00 +17°C° 0 mm 2 mps 738 mmHg 84%
    07:00 +18°C° 0 mm 2 mps 738 mmHg 79%
    08:00 +20°C° 0 mm 2 mps 738 mmHg 75%
    09:00 +21°C° 0 mm 3 mps 738 mmHg 70%
    10:00 +24°C° 0 mm 3 mps 738 mmHg 64%
    11:00 +25°C° 0 mm 3 mps 738 mmHg 59%
    12:00 +25°C° 0.2 mm 4 mps 738 mmHg 60%
    13:00 +25°C° 0.2 mm 4 mps 738 mmHg 61%
    14:00 +25°C° 0.2 mm 4 mps 738 mmHg 62%
    15:00 +25°C° 0.4 mm 4 mps 738 mmHg 66%
    16:00 +24°C° 0.4 mm 3 mps 737 mmHg 70%
    17:00 +24°C° 0.4 mm 3 mps 737 mmHg 74%
    18:00 +21°C° 0.1 mm 2 mps 737 mmHg 78%
    19:00 +20°C° 0.1 mm 2 mps 738 mmHg 83%
    20:00 +18°C° 0.1 mm 2 mps 738 mmHg 87%
    21:00 +18°C° 0.1 mm 2 mps 738 mmHg 89%
    22:00 +18°C° 0.1 mm 1 mps 738 mmHg 90%
    23:00 +16°C° 0.1 mm 1 mps 738 mmHg 92%

    Pasado mañana, 24 Mayo, Viernes

    Tiempo Temperatura Precipitaciones Viento Presión Humedad
    00:00 +16°C° 0 mm 1 mps 738 mmHg 93%
    01:00 +15°C° 0 mm 2 mps 739 mmHg 94%
    02:00 +15°C° 0 mm 2 mps 739 mmHg 95%
    03:00 +15°C° 0 mm 2 mps 739 mmHg 96%
    04:00 +15°C° 0 mm 2 mps 739 mmHg 96%
    05:00 +14°C° 0 mm 3 mps 739 mmHg 96%
    06:00 +14°C° 0 mm 3 mps 740 mmHg 94%
    07:00 +16°C° 0 mm 3 mps 740 mmHg 91%
    08:00 +17°C° 0 mm 3 mps 740 mmHg 89%
    09:00 +17°C° 0 mm 3 mps 740 mmHg 87%
    10:00 +18°C° 0 mm 3 mps 740 mmHg 85%
    11:00 +18°C° 0 mm 3 mps 740 mmHg 83%
    12:00 +19°C° 0 mm 3 mps 740 mmHg 81%
    13:00 +19°C° 0 mm 3 mps 740 mmHg 79%
    14:00 +20°C° 0 mm 3 mps 740 mmHg 77%
    15:00 +20°C° 0 mm 3 mps 740 mmHg 78%
    16:00 +20°C° 0 mm 3 mps 739 mmHg 78%
    17:00 +20°C° 0 mm 4 mps 739 mmHg 79%
    18:00 +19°C° 0.2 mm 3 mps 739 mmHg 83%
    19:00 +18°C° 0.2 mm 3 mps 739 mmHg 88%
    20:00 +17°C° 0.2 mm 3 mps 739 mmHg 92%
    21:00 +16°C° 0.4 mm 3 mps 739 mmHg 93%
    22:00 +16°C° 0.4 mm 3 mps 739 mmHg 94%
    23:00 +14°C° 0.4 mm 3 mps 739 mmHg 96%

    25 Mayo, Sábado

    Tiempo Temperatura Precipitaciones Viento Presión Humedad
    00:00 +14°C° 0.6 mm 3 mps 739 mmHg 96%
    01:00 +14°C° 0.6 mm 3 mps 738 mmHg 97%
    02:00 +13°C° 0.6 mm 3 mps 738 mmHg 98%
    03:00 +14°C° 0.2 mm 3 mps 738 mmHg 97%
    04:00 +15°C° 0.2 mm 2 mps 738 mmHg 97%
    05:00 +15°C° 0.2 mm 2 mps 738 mmHg 97%
    06:00 +16°C° 0.1 mm 2 mps 737 mmHg 95%
    07:00 +16°C° 0.1 mm 2 mps 737 mmHg 93%
    08:00 +17°C° 0.1 mm 2 mps 737 mmHg 91%
    09:00 +19°C° 0.6 mm 1 mps 737 mmHg 87%
    10:00 +20°C° 0.6 mm 1 mps 737 mmHg 83%
    11:00 +21°C° 0.6 mm 1 mps 737 mmHg 79%
    12:00 +21°C° 1.5 mm 1 mps 736 mmHg 81%
    13:00 +21°C° 1.5 mm 1 mps 736 mmHg 83%
    14:00 +20°C° 1.5 mm 1 mps 736 mmHg 84%
    15:00 +20°C° 0.4 mm 1 mps 736 mmHg 84%
    16:00 +20°C° 0.4 mm 1 mps 735 mmHg 84%
    17:00 +19°C° 0.4 mm 2 mps 735 mmHg 85%
    18:00 +18°C° 0.1 mm 2 mps 735 mmHg 88%
    19:00 +17°C° 0.1 mm 2 mps 735 mmHg 90%
    20:00 +16°C° 0.1 mm 2 mps 735 mmHg 93%
    21:00 +15°C° 0 mm 2 mps 735 mmHg 93%
    22:00 +13°C° 0 mm 3 mps 735 mmHg 93%
    23:00 +13°C° 0 mm 3 mps 736 mmHg 92%

    26 Mayo, Domingo

    Tiempo Temperatura Precipitaciones Viento Presión Humedad
    00:00 +12°C° 0 mm 3 mps 736 mmHg 93%
    01:00 +11°C° 0 mm 3 mps 736 mmHg 94%
    02:00 +10°C° 0 mm 2 mps 736 mmHg 95%
    03:00 +10°C° 0 mm 2 mps 736 mmHg 95%
    04:00 +10°C° 0 mm 3 mps 737 mmHg 95%
    05:00 +10°C° 0 mm 3 mps 737 mmHg 95%
    06:00 +11°C° 0 mm 3 mps 737 mmHg 90%
    07:00 +12°C° 0 mm 3 mps 737 mmHg 85%
    08:00 +13°C° 0 mm 3 mps 737 mmHg 80%
    09:00 +14°C° 0 mm 4 mps 737 mmHg 74%
    10:00 +15°C° 0 mm 4 mps 737 mmHg 68%
    11:00 +17°C° 0 mm 4 mps 737 mmHg 62%
    12:00 +18°C° 0 mm 4 mps 737 mmHg 61%
    13:00 +18°C° 0 mm 4 mps 737 mmHg 60%
    14:00 +19°C° 0 mm 5 mps 737 mmHg 59%
    15:00 +19°C° 0 mm 4 mps 737 mmHg 60%
    16:00 +18°C° 0 mm 4 mps 737 mmHg 62%
    17:00 +18°C° 0 mm 4 mps 737 mmHg 64%
    18:00 +16°C° 0 mm 3 mps 736 mmHg 72%
    19:00 +14°C° 0 mm 2 mps 736 mmHg 81%
    20:00 +12°C° 0 mm 2 mps 736 mmHg 90%
    21:00 +13°C° 0.1 mm 2 mps 736 mmHg 90%
    22:00 +13°C° 0.1 mm 2 mps 736 mmHg 90%
    23:00 +12°C° 0.1 mm 3 mps 736 mmHg 90%

    27 Mayo, Lunes

    Tiempo Temperatura Precipitaciones Viento Presión Humedad
    00:00 +11°C° 0.2 mm 3 mps 736 mmHg 91%
    01:00 +11°C° 0.2 mm 3 mps 735 mmHg 92%
    02:00 +10°C° 0.2 mm 3 mps 735 mmHg 94%
    03:00 +8°C° 0.1 mm 4 mps 735 mmHg 94%
    04:00 +8°C° 0.1 mm 4 mps 736 mmHg 94%
    05:00 +7°C° 0.1 mm 4 mps 736 mmHg 94%
    06:00 +8°C° 0 mm 5 mps 736 mmHg 89%
    07:00 +9°C° 0 mm 6 mps 736 mmHg 83%
    08:00 +9°C° 0 mm 6 mps 737 mmHg 77%
    09:00 +10°C° 0.2 mm 7 mps 737 mmHg 75%
    10:00 +10°C° 0.2 mm 7 mps 737 mmHg 73%
    11:00 +10°C° 0.2 mm 8 mps 738 mmHg 71%
    12:00 +10°C° 0 mm 7 mps 738 mmHg 72%
    13:00 +10°C° 0 mm 7 mps 738 mmHg 73%
    14:00 +11°C° 0 mm 7 mps 739 mmHg 75%
    15:00 +11°C° 0 mm 7 mps 739 mmHg 74%
    16:00 +11°C° 0 mm 6 mps 740 mmHg 73%
    17:00 +13°C° 0 mm 6 mps 740 mmHg 73%
    18:00 +12°C° 0 mm 5 mps 740 mmHg 76%
    19:00 +11°C° 0 mm 4 mps 741 mmHg 80%
    20:00 +10°C° 0 mm 4 mps 741 mmHg 84%
    21:00 +9°C° 0 mm 3 mps 742 mmHg 87%
    22:00 +8°C° 0 mm 3 mps 742 mmHg 90%
    23:00 +7°C° 0 mm 3 mps 742 mmHg 93%
    Mostrar más